📊 Raw Sensor Data

Showing records 33776 to 33800 of 84,800 total

ID Distance (ft) Battery V Battery A Int Temp (°F) Int Humid (%) Ext Temp (°F) Solar V RSSI SNR Time Stamp
51037 15.2 3.94 0 85 42 81 5.10 -73 8 09/04/2025 12:15 PM
51036 15.2 3.95 8 84 42 77 5.10 -73 8 09/04/2025 12:00 PM
51035 15.2 3.94 0 82 42 78 5.10 -72 7 09/04/2025 11:45 AM
51034 14.3 3.94 8 83 41 77 5.10 -74 8 09/04/2025 11:30 AM
51033 15.2 3.94 0 82 41 81 5.10 -74 8 09/04/2025 11:15 AM
51032 15.2 3.94 8 79 41 77 5.10 -73 7 09/04/2025 11:00 AM
51031 14.4 3.94 8 79 41 78 5.10 -73 7 09/04/2025 10:45 AM
51030 15.2 3.95 0 77 41 75 5.10 -71 7 09/04/2025 10:30 AM
51029 15.3 3.94 8 75 41 75 5.10 -72 8 09/04/2025 10:15 AM
51028 15.4 4.03 8 74 41 73 5.10 -72 7 09/04/2025 10:00 AM
51027 15.2 3.93 0 72 41 74 5.10 -72 7 09/04/2025 09:45 AM
51026 15.3 4.04 0 71 41 75 5.10 -72 8 09/04/2025 09:30 AM
51025 15.3 4.06 9 69 41 74 5.10 -73 7 09/04/2025 09:15 AM
51024 15.4 4.01 0 68 41 72 5.10 -73 7 09/04/2025 09:00 AM
51023 15.3 3.93 9 66 41 70 5.10 -66 8 09/04/2025 08:45 AM
51022 15.2 3.93 9 65 41 69 5.10 -66 7 09/04/2025 08:30 AM
51021 15.1 4.14 107 64 41 68 4.50 -66 8 09/04/2025 08:15 AM
51020 15.0 4.11 64 62 42 65 4.50 -72 7 09/04/2025 08:00 AM
51019 14.2 3.99 52 60 42 68 4.50 -72 7 09/04/2025 07:45 AM
51018 15.1 3.94 18 59 43 65 4.50 -70 8 09/04/2025 07:30 AM
51017 15.0 3.94 9 57 43 64 4.50 -70 8 09/04/2025 07:15 AM
51016 14.7 3.86 0 56 43 60 4.50 -70 8 09/04/2025 07:00 AM
51015 15.0 3.84 -15 56 43 57 4.40 -70 8 09/04/2025 06:45 AM
51014 15.0 3.85 -5 56 43 57 1.20 -71 8 09/04/2025 06:30 AM
51013 15.0 3.86 -5 56 43 57 0.00 -71 8 09/04/2025 06:15 AM